Location: Unspecified
(48.2082°N, 0.0000°E)
Time: 10:34:03
(UTC+00:00)

A-11 Canister half - Pass Details

Date: 26 June 2019
Orbit: 1515 x 1685 km, 47.2° (Epoch: 15 July)

Event Time Altitude Azimuth Distance (km) Brightness Sun altitude
Rises 14:04:51 0° 283° (WNW) 4,856 11.9 55.4°
Reaches altitude 10° 14:08:01 10° 282° (WNW) 3,846 11.6 54.9°
Maximum altitude 14:17:42 70° 201° (SSW) 1,655 10.7 53.6°
Drops below altitude 10° 14:27:00 10° 120° (ESE) 3,709 10.9 52.2°
Sets 14:30:01 0° 118° (ESE) 4,676 11.3 51.8°
